AirNav   Air Wisconsin pilot careers
 
 1682 users online  

3T8 Wildcat Canyon Airport
China Spring, Texas, USA

GOING TO CHINA SPRING?


FAA INFORMATION EFFECTIVE 19 JULY 2018

Location

FAA Identifier: 3T8
Lat/Long: 31-40-42.8000N / 097-21-45.2000W
31-40.713333N / 097-21.753333W
31.6785556 / -97.3625556
(estimated)
Elevation: 660 ft. / 201 m (estimated)
Variation: 07E (1990)
From city: 4 miles NW of CHINA SPRING, TX
Time zone: UTC -5 (UTC -6 during Standard Time)
Zip code: 76633

Airport Operations

Airport use: Open to the public
Activation date: 11/1992
Control tower: no
ARTCC: FORT WORTH CENTER
FSS: FORT WORTH FLIGHT SERVICE STATION
NOTAMs facility: FTW (NOTAM-D service available)
Attendance: UNATNDD
Wind indicator: yes
Segmented circle: no

Airport Communications

CTAF: 122.9
WX ASOS at ACT (8 nm SE): PHONE 254-759-3065
WX AWOS-3PT at PWG (12 nm S): 135.525 (254-848-4581)
WX AWOS-3 at CNW (15 nm E): 134.225 (254-867-3880)

Nearby radio navigation aids

VOR radial/distance  VOR name  Freq  Var
ACTr273/4.9WACO VORTAC115.3009E
TPLr357/28.3TEMPLE VOR/DME110.4009E
JENr132/39.0GLEN ROSE VORTAC115.0006E

 
NDB name  Hdg/Dist  Freq  Var  ID
ROBINSON298/18.340007EROB .-. --- -...
HOOD021/37.534707EHLR .... .-.. .-.

Airport Services

Parking: tiedowns

Runway Information

Runway 15/33

Dimensions: 2450 x 60 ft. / 747 x 18 m
Surface: turf, in good condition
RUNWAY 15  RUNWAY 33
Latitude: 31-40.892675N31-40.535473N
Longitude: 097-21.864032W097-21.642847W
Elevation: 658.0 ft.649.0 ft.
Gradient: 0.4% UP
Traffic pattern: leftleft
Runway heading: 145 magnetic, 152 true325 magnetic, 332 true
Obstructions: 8 ft. fence, marked, 160 ft. from runway, 20:1 slope to clear10 ft. road, 200 ft. from runway, 20:1 slope to clear

Airport Ownership and Management from official FAA records

Ownership: Privately-owned
Owner: DONALD W. BAKER
381 BAKER RANCH ROAD
CHINA SPRING, TX 76633
Phone (817) 909-8044
Manager: DONALD W. BAKER
381 BAKER RANCH ROAD
CHINA SPRING, TX 76633
Phone 817-909-8044

Airport Operational Statistics

Aircraft operations: avg 52/month *
97% transient general aviation
3% military
* for 12-month period ending 18 February 2016

Additional Remarks

DEER AND WILD HOGS ON & INVOF RY.

Instrument Procedures

There are no published instrument procedures at 3T8.

Some nearby airports with instrument procedures:

KACT - Waco Regional Airport (8 nm SE)
KPWG - Mc Gregor Executive Airport (12 nm S)
KCNW - TSTC Waco Airport (15 nm E)
KINJ - Hillsboro Municipal Airport (28 nm NE)
KTPL - Draughon-Miller Central Texas Regional Airport (32 nm S)
 
Loc | Ops | Rwys | IFR | FBO | Links
Com | Nav | Svcs | Stats | Notes


 
Area around 3T8 (Wildcat Canyon Airport)
 
Road maps at: MapQuest Bing Google
 
Aerial photo
No photo
 
Sectional chart

 
Airport distance calculator
Flying to Wildcat Canyon Airport? Find the distance to fly.

From to 3T8

Sunrise and sunset
Times for 23-Jul-2018
 Local
(UTC-5)
 Zulu
(UTC)
Morning civil twilight06:1411:14
Sunrise06:4111:41
Sunset20:3101:31
Evening civil twilight20:5801:58

Current date and time
Zulu (UTC)  23-Jul-2018 16:24:21
Local (UTC-5)  23-Jul-2018 11:24:21
 
METAR
KACT 
8nm SE 
231551Z VRB04KT 10SM CLR 37/17 A2990 RMK AO2 SLP115 T03670167
KPWG 
13nm S 
231556Z AUTO 28008KT 10SM CLR 37/18 A2991 RMK AO2 SLP126 T03670178
KCNW 
15nm E 
231550Z 25007KT 10SM SKC 35/16 A2991
TAF
KACT 
8nm SE 
231130Z 2312/2412 20007KT P6SM SCT200 BKN300 FM231600 26007KT P6SM BKN180 FM231800 35008KT P6SM SCT170 BKN300 FM240100 04009KT P6SM VCSH BKN120 FM240600 06007KT P6SM BKN150
NOTAMs
Click for the latest NOTAMs
NOTAMs are issued by the DoD/FAA and will open in a separate window not controlled by AirNav.

 

 
 

Would you like to see your business listed on this page?

 If your business provides an interesting product or service to pilots, flight crews, aircraft, or users of the Wildcat Canyon Airport, you should consider listing it here.  To start the listing process, click on the button below
 
Add a business
 

Other Pages about Wildcat Canyon Airport

Update a link
 
Copyright © AirNav, LLC. All rights reserved. Privacy Policy  Contact